Time,TemperatureF,DewpointF,PressureIn,WindDirection,WindDirectionDegrees,WindSpeedMPH,WindSpeedGustMPH,Humidity,HourlyPrecipIn,Conditions,Clouds,dailyrainin,SoftwareType,DateUTC
2013-01-08 00:04:00,40.0,28.0,30.32,South,175,0.0,2.0,61,0.00,,,0.00,,2013-01-08 05:04:00,
2013-01-08 00:12:00,40.0,28.0,30.32,South,175,0.0,2.0,61,0.00,,,0.00,,2013-01-08 05:12:00,
2013-01-08 00:22:00,40.0,28.0,30.31,South,172,0.0,5.0,62,0.00,,,0.00,,2013-01-08 05:22:00,
2013-01-08 00:33:00,39.0,28.0,30.32,SE,145,1.0,5.0,65,0.00,,,0.00,,2013-01-08 05:33:00,
2013-01-08 00:43:00,39.0,28.0,30.32,SE,145,1.0,5.0,65,0.00,,,0.00,,2013-01-08 05:43:00,
2013-01-08 00:53:00,39.0,28.0,30.32,SSE,165,1.0,5.0,65,0.00,,,0.00,,2013-01-08 05:53:00,
2013-01-08 01:02:00,39.0,28.0,30.32,SSE,167,0.0,2.0,65,0.00,,,0.00,,2013-01-08 06:02:00,
2013-01-08 01:12:00,39.0,28.0,30.32,SSE,167,0.0,2.0,65,0.00,,,0.00,,2013-01-08 06:12:00,
2013-01-08 01:22:00,40.0,28.0,30.32,SW,216,3.0,7.0,62,0.00,,,0.00,,2013-01-08 06:22:00,
2013-01-08 01:33:00,41.0,29.0,30.32,SW,226,2.0,5.0,62,0.00,,,0.00,,2013-01-08 06:33:00,
2013-01-08 01:42:00,41.0,29.0,30.32,SW,226,2.0,5.0,62,0.00,,,0.00,,2013-01-08 06:42:00,
2013-01-08 01:52:00,41.0,28.0,30.31,SW,226,0.0,8.0,59,0.00,,,0.00,,2013-01-08 06:52:00,
2013-01-08 02:02:00,40.0,27.0,30.31,SSW,196,1.0,7.0,60,0.00,,,0.00,,2013-01-08 07:02:00,
2013-01-08 02:12:00,40.0,27.0,30.31,SSW,196,1.0,7.0,60,0.00,,,0.00,,2013-01-08 07:12:00,
2013-01-08 02:22:00,40.0,28.0,30.31,SSW,198,1.0,5.0,61,0.00,,,0.00,,2013-01-08 07:22:00,
2013-01-08 02:32:00,40.0,27.0,30.31,SSW,200,0.0,4.0,60,0.00,,,0.00,,2013-01-08 07:32:00,
2013-01-08 02:42:00,40.0,27.0,30.31,SSW,200,0.0,4.0,60,0.00,,,0.00,,2013-01-08 07:42:00,
2013-01-08 02:52:00,39.0,27.0,30.31,SSW,202,1.0,3.0,62,0.00,,,0.00,,2013-01-08 07:52:00,
2013-01-08 03:02:00,39.0,27.0,30.31,SSW,202,2.0,6.0,62,0.00,,,0.00,,2013-01-08 08:02:00,
2013-01-08 03:12:00,39.0,27.0,30.31,SSW,202,2.0,6.0,62,0.00,,,0.00,,2013-01-08 08:12:00,
2013-01-08 03:22:00,40.0,28.0,30.31,SSW,202,2.0,6.0,61,0.00,,,0.00,,2013-01-08 08:22:00,
2013-01-08 03:32:00,41.0,28.0,30.31,SW,224,3.0,7.0,60,0.00,,,0.00,,2013-01-08 08:32:00,
2013-01-08 03:42:00,41.0,28.0,30.31,SW,224,3.0,7.0,60,0.00,,,0.00,,2013-01-08 08:42:00,
2013-01-08 03:52:00,41.0,28.0,30.31,SW,236,3.0,7.0,60,0.00,,,0.00,,2013-01-08 08:52:00,
2013-01-08 04:02:00,41.0,28.0,30.30,SW,222,2.0,6.0,60,0.00,,,0.00,,2013-01-08 09:02:00,
2013-01-08 04:12:00,40.0,28.0,30.31,SW,223,0.0,5.0,61,0.00,,,0.00,,2013-01-08 09:12:00,
2013-01-08 04:22:00,40.0,28.0,30.31,SW,223,0.0,5.0,61,0.00,,,0.00,,2013-01-08 09:22:00,
2013-01-08 04:32:00,37.0,27.0,30.31,SW,223,0.0,0.0,67,0.00,,,0.00,,2013-01-08 09:32:00,
2013-01-08 04:42:00,37.0,27.0,30.31,SW,223,0.0,0.0,67,0.00,,,0.00,,2013-01-08 09:42:00,
2013-01-08 04:52:00,37.0,28.0,30.31,SW,223,0.0,0.0,69,0.00,,,0.00,,2013-01-08 09:52:00,
2013-01-08 05:02:00,37.0,28.0,30.31,SW,223,0.0,0.0,70,0.00,,,0.00,,2013-01-08 10:02:00,
2013-01-08 05:12:00,37.0,28.0,30.31,SW,223,0.0,0.0,70,0.00,,,0.00,,2013-01-08 10:12:00,
2013-01-08 05:22:00,37.0,28.0,30.31,SW,223,0.0,0.0,71,0.00,,,0.00,,2013-01-08 10:22:00,
2013-01-08 05:33:00,37.0,28.0,30.30,SW,223,0.0,0.0,71,0.00,,,0.00,,2013-01-08 10:33:00,
2013-01-08 05:42:00,37.0,28.0,30.30,SW,223,0.0,0.0,71,0.00,,,0.00,,2013-01-08 10:42:00,
2013-01-08 05:52:00,37.0,28.0,30.31,SW,223,0.0,0.0,70,0.00,,,0.00,,2013-01-08 10:52:00,
2013-01-08 06:02:00,37.0,28.0,30.32,SW,223,0.0,0.0,70,0.00,,,0.00,,2013-01-08 11:02:00,
2013-01-08 06:12:00,37.0,28.0,30.32,SW,223,0.0,0.0,70,0.00,,,0.00,,2013-01-08 11:12:00,
2013-01-08 06:22:00,37.0,28.0,30.32,SW,223,0.0,0.0,70,0.00,,,0.00,,2013-01-08 11:22:00,
2013-01-08 06:33:00,37.0,28.0,30.32,SW,223,0.0,0.0,69,0.00,,,0.00,,2013-01-08 11:33:00,
2013-01-08 06:42:00,37.0,28.0,30.32,SW,223,0.0,0.0,69,0.00,,,0.00,,2013-01-08 11:42:00,
2013-01-08 06:53:00,37.0,28.0,30.32,SW,223,0.0,0.0,69,0.00,,,0.00,,2013-01-08 11:53:00,
2013-01-08 07:03:00,37.0,28.0,30.32,SW,223,0.0,0.0,69,0.00,,,0.00,,2013-01-08 12:03:00,
2013-01-08 07:12:00,37.0,28.0,30.32,SW,223,0.0,0.0,69,0.00,,,0.00,,2013-01-08 12:12:00,
2013-01-08 07:22:00,37.0,28.0,30.32,SW,223,0.0,0.0,69,0.00,,,0.00,,2013-01-08 12:22:00,
2013-01-08 07:33:00,37.0,28.0,30.32,SW,223,0.0,0.0,69,0.00,,,0.00,,2013-01-08 12:33:00,
2013-01-08 07:43:00,37.0,28.0,30.32,SW,223,0.0,0.0,69,0.00,,,0.00,,2013-01-08 12:43:00,
2013-01-08 07:53:00,38.0,29.0,30.33,SW,223,0.0,0.0,69,0.00,,,0.00,,2013-01-08 12:53:00,
2013-01-08 08:03:00,37.0,28.0,30.34,SW,223,0.0,0.0,69,0.00,,,0.00,,2013-01-08 13:03:00,
2013-01-08 08:13:00,37.0,28.0,30.34,SW,223,0.0,0.0,69,0.00,,,0.00,,2013-01-08 13:13:00,
2013-01-08 08:22:00,37.0,28.0,30.35,SW,223,0.0,0.0,69,0.00,,,0.00,,2013-01-08 13:22:00,
2013-01-08 08:33:00,36.0,27.0,30.34,SW,223,0.0,0.0,70,0.00,,,0.00,,2013-01-08 13:33:00,
2013-01-08 08:43:00,36.0,27.0,30.34,SW,223,0.0,0.0,70,0.00,,,0.00,,2013-01-08 13:43:00,
2013-01-08 08:52:00,36.0,28.0,30.36,SW,223,0.0,2.0,73,0.00,,,0.00,,2013-01-08 13:52:00,
2013-01-08 09:02:00,37.0,29.0,30.37,SW,223,0.0,0.0,73,0.00,,,0.00,,2013-01-08 14:02:00,
2013-01-08 09:13:00,37.0,29.0,30.37,SW,223,0.0,0.0,73,0.00,,,0.00,,2013-01-08 14:13:00,
2013-01-08 09:23:00,37.0,30.0,30.37,SW,223,0.0,0.0,75,0.00,,,0.00,,2013-01-08 14:23:00,
2013-01-08 09:33:00,37.0,30.0,30.38,SW,223,0.0,0.0,75,0.00,,,0.00,,2013-01-08 14:33:00,
2013-01-08 09:43:00,37.0,30.0,30.38,SW,223,0.0,0.0,75,0.00,,,0.00,,2013-01-08 14:43:00,
2013-01-08 09:53:00,37.0,30.0,30.38,SW,222,2.0,3.0,77,0.00,,,0.00,,2013-01-08 14:53:00,
2013-01-08 10:03:00,38.0,31.0,30.38,SW,222,0.0,2.0,77,0.00,,,0.00,,2013-01-08 15:03:00,
2013-01-08 10:12:00,38.0,31.0,30.38,SW,222,0.0,2.0,77,0.00,,,0.00,,2013-01-08 15:12:00,
2013-01-08 10:22:00,38.0,31.0,30.39,SW,220,1.0,2.0,77,0.00,,,0.00,,2013-01-08 15:22:00,
2013-01-08 10:33:00,39.0,32.0,30.39,SSW,192,1.0,2.0,76,0.00,,,0.00,,2013-01-08 15:33:00,
2013-01-08 10:43:00,39.0,32.0,30.39,SSW,192,1.0,2.0,76,0.00,,,0.00,,2013-01-08 15:43:00,
2013-01-08 10:53:00,40.0,32.0,30.40,South,179,2.0,2.0,74,0.00,,,0.00,,2013-01-08 15:53:00,
2013-01-08 11:03:00,41.0,32.0,30.40,South,179,1.0,2.0,71,0.00,,,0.00,,2013-01-08 16:03:00,
2013-01-08 11:13:00,41.0,32.0,30.40,South,179,1.0,2.0,71,0.00,,,0.00,,2013-01-08 16:13:00,
2013-01-08 11:23:00,42.0,33.0,30.40,SE,134,0.0,3.0,69,0.00,,,0.00,,2013-01-08 16:23:00,
2013-01-08 11:34:00,44.0,33.0,30.39,SE,130,1.0,3.0,65,0.00,,,0.00,,2013-01-08 16:34:00,
2013-01-08 11:43:00,44.0,33.0,30.39,SE,130,1.0,3.0,65,0.00,,,0.00,,2013-01-08 16:43:00,
2013-01-08 11:52:00,45.0,34.0,30.38,ESE,123,1.0,5.0,64,0.00,,,0.00,,2013-01-08 16:52:00,
2013-01-08 12:03:00,47.0,34.0,30.38,SE,126,0.0,3.0,60,0.00,,,0.00,,2013-01-08 17:03:00,
2013-01-08 12:13:00,47.0,34.0,30.38,SE,126,0.0,3.0,60,0.00,,,0.00,,2013-01-08 17:13:00,
2013-01-08 12:23:00,47.0,34.0,30.37,ESE,113,0.0,3.0,60,0.00,,,0.00,,2013-01-08 17:23:00,
2013-01-08 12:34:00,48.0,33.0,30.36,South,191,1.0,5.0,56,0.00,,,0.00,,2013-01-08 17:34:00,
2013-01-08 12:43:00,48.0,33.0,30.36,South,191,1.0,5.0,56,0.00,,,0.00,,2013-01-08 17:43:00,
2013-01-08 12:53:00,49.0,33.0,30.35,ESE,109,2.0,5.0,54,0.00,,,0.00,,2013-01-08 17:53:00,
2013-01-08 13:04:00,50.0,34.0,30.34,SE,133,0.0,5.0,54,0.00,,,0.00,,2013-01-08 18:04:00,
2013-01-08 13:13:00,50.0,34.0,30.34,SE,133,0.0,5.0,54,0.00,,,0.00,,2013-01-08 18:13:00,
2013-01-08 13:23:00,51.0,34.0,30.33,South,184,2.0,5.0,52,0.00,,,0.00,,2013-01-08 18:23:00,
2013-01-08 13:33:00,50.0,34.0,30.32,SE,128,2.0,6.0,53,0.00,,,0.00,,2013-01-08 18:33:00,
2013-01-08 13:43:00,50.0,34.0,30.32,SE,128,2.0,6.0,53,0.00,,,0.00,,2013-01-08 18:43:00,
2013-01-08 13:53:00,50.0,34.0,30.31,ESE,116,1.0,3.0,54,0.00,,,0.00,,2013-01-08 18:53:00,
2013-01-08 14:03:00,51.0,35.0,30.31,SE,127,2.0,3.0,54,0.00,,,0.00,,2013-01-08 19:03:00,
2013-01-08 14:12:00,51.0,35.0,30.31,SE,127,2.0,3.0,54,0.00,,,0.00,,2013-01-08 19:12:00,
2013-01-08 14:23:00,52.0,35.0,30.31,SSW,212,2.0,5.0,53,0.00,,,0.00,,2013-01-08 19:23:00,
2013-01-08 14:33:00,53.0,36.0,30.31,SSW,206,1.0,3.0,52,0.00,,,0.00,,2013-01-08 19:33:00,
2013-01-08 14:43:00,53.0,36.0,30.31,SSW,206,1.0,3.0,52,0.00,,,0.00,,2013-01-08 19:43:00,
2013-01-08 14:53:00,53.0,35.0,30.31,SSE,160,0.0,5.0,51,0.00,,,0.00,,2013-01-08 19:53:00,
2013-01-08 15:03:00,53.0,35.0,30.30,SSE,168,0.0,3.0,51,0.00,,,0.00,,2013-01-08 20:03:00,
2013-01-08 15:12:00,53.0,35.0,30.30,SSE,168,0.0,3.0,51,0.00,,,0.00,,2013-01-08 20:12:00,
2013-01-08 15:23:00,54.0,36.0,30.29,SE,138,2.0,7.0,51,0.00,,,0.00,,2013-01-08 20:23:00,
2013-01-08 15:33:00,55.0,37.0,30.28,SSE,151,0.0,6.0,51,0.00,,,0.00,,2013-01-08 20:33:00,
2013-01-08 15:43:00,55.0,37.0,30.28,SSE,151,0.0,6.0,51,0.00,,,0.00,,2013-01-08 20:43:00,
2013-01-08 15:53:00,55.0,37.0,30.29,South,181,1.0,5.0,50,0.00,,,0.00,,2013-01-08 20:53:00,
2013-01-08 16:03:00,55.0,37.0,30.29,SW,233,3.0,5.0,50,0.00,,,0.00,,2013-01-08 21:03:00,
2013-01-08 16:13:00,55.0,37.0,30.29,SW,233,3.0,5.0,50,0.00,,,0.00,,2013-01-08 21:13:00,
2013-01-08 16:23:00,55.0,37.0,30.29,SSW,205,1.0,6.0,51,0.00,,,0.00,,2013-01-08 21:23:00,
2013-01-08 16:33:00,55.0,38.0,30.29,South,185,0.0,3.0,53,0.00,,,0.00,,2013-01-08 21:33:00,
2013-01-08 16:43:00,55.0,38.0,30.29,South,185,0.0,3.0,53,0.00,,,0.00,,2013-01-08 21:43:00,
2013-01-08 16:53:00,55.0,38.0,30.29,South,185,1.0,3.0,53,0.00,,,0.00,,2013-01-08 21:53:00,
2013-01-08 17:03:00,54.0,39.0,30.29,SE,124,1.0,6.0,56,0.00,,,0.00,,2013-01-08 22:03:00,
2013-01-08 17:12:00,54.0,39.0,30.29,SE,124,1.0,6.0,56,0.00,,,0.00,,2013-01-08 22:12:00,
2013-01-08 17:23:00,54.0,40.0,30.29,SE,126,0.0,2.0,59,0.00,,,0.00,,2013-01-08 22:23:00,
2013-01-08 17:33:00,53.0,39.0,30.28,SE,126,1.0,2.0,59,0.00,,,0.00,,2013-01-08 22:33:00,
2013-01-08 17:43:00,53.0,39.0,30.28,SE,126,1.0,2.0,59,0.00,,,0.00,,2013-01-08 22:43:00,
2013-01-08 17:52:00,53.0,39.0,30.28,SE,126,0.0,2.0,60,0.00,,,0.00,,2013-01-08 22:52:00,
2013-01-08 18:03:00,52.0,39.0,30.28,SE,126,0.0,2.0,62,0.00,,,0.00,,2013-01-08 23:03:00,
2013-01-08 18:13:00,52.0,39.0,30.28,SE,126,0.0,2.0,62,0.00,,,0.00,,2013-01-08 23:13:00,
2013-01-08 18:22:00,51.0,39.0,30.28,SE,126,0.0,0.0,63,0.00,,,0.00,,2013-01-08 23:22:00,
2013-01-08 18:33:00,51.0,40.0,30.29,SE,126,0.0,0.0,65,0.00,,,0.00,,2013-01-08 23:33:00,
2013-01-08 18:43:00,51.0,40.0,30.29,SE,126,0.0,0.0,65,0.00,,,0.00,,2013-01-08 23:43:00,
2013-01-08 18:52:00,50.0,39.0,30.30,SE,126,0.0,2.0,66,0.00,,,0.00,,2013-01-08 23:52:00,
2013-01-08 19:03:00,50.0,39.0,30.30,SE,126,0.0,0.0,67,0.00,,,0.00,,2013-01-09 00:03:00,
2013-01-08 19:13:00,50.0,39.0,30.30,SE,126,0.0,0.0,67,0.00,,,0.00,,2013-01-09 00:13:00,
2013-01-08 19:22:00,50.0,40.0,30.32,SE,126,0.0,0.0,68,0.00,,,0.00,,2013-01-09 00:22:00,
2013-01-08 19:33:00,49.0,39.0,30.32,SE,126,0.0,0.0,69,0.00,,,0.00,,2013-01-09 00:33:00,
2013-01-08 19:43:00,49.0,39.0,30.32,SE,126,0.0,0.0,69,0.00,,,0.00,,2013-01-09 00:43:00,
2013-01-08 19:52:00,49.0,40.0,30.31,SE,126,0.0,3.0,70,0.00,,,0.00,,2013-01-09 00:52:00,
2013-01-08 20:02:00,49.0,40.0,30.31,SE,126,0.0,3.0,71,0.00,,,0.00,,2013-01-09 01:02:00,
2013-01-08 20:12:00,49.0,40.0,30.31,SE,126,0.0,3.0,71,0.00,,,0.00,,2013-01-09 01:12:00,
2013-01-08 20:22:00,49.0,40.0,30.31,SE,127,0.0,2.0,72,0.00,,,0.00,,2013-01-09 01:22:00,
2013-01-08 20:33:00,49.0,40.0,30.30,SSE,160,2.0,6.0,72,0.00,,,0.00,,2013-01-09 01:33:00,
2013-01-08 20:42:00,49.0,40.0,30.30,SSE,160,2.0,6.0,72,0.00,,,0.00,,2013-01-09 01:42:00,
2013-01-08 20:52:00,49.0,41.0,30.31,SSE,164,2.0,8.0,74,0.00,,,0.00,,2013-01-09 01:52:00,
2013-01-08 21:02:00,49.0,41.0,30.31,South,178,0.0,3.0,75,0.00,,,0.00,,2013-01-09 02:02:00,
2013-01-08 21:12:00,49.0,41.0,30.31,South,178,0.0,3.0,75,0.00,,,0.00,,2013-01-09 02:12:00,
2013-01-08 21:22:00,48.0,41.0,30.32,South,178,1.0,3.0,76,0.00,,,0.00,,2013-01-09 02:22:00,
2013-01-08 21:33:00,49.0,42.0,30.31,SW,217,3.0,7.0,76,0.00,,,0.00,,2013-01-09 02:33:00,
2013-01-08 21:43:00,49.0,42.0,30.31,SW,217,3.0,7.0,76,0.00,,,0.00,,2013-01-09 02:43:00,
2013-01-08 21:52:00,49.0,42.0,30.31,SSE,162,1.0,7.0,76,0.00,,,0.00,,2013-01-09 02:52:00,
2013-01-08 22:03:00,48.0,41.0,30.31,SSW,202,2.0,5.0,77,0.00,,,0.00,,2013-01-09 03:03:00,
2013-01-08 22:12:00,48.0,41.0,30.31,SSW,202,2.0,5.0,77,0.00,,,0.00,,2013-01-09 03:12:00,
2013-01-08 22:22:00,49.0,42.0,30.31,SW,224,4.0,8.0,78,0.00,,,0.00,,2013-01-09 03:22:00,
2013-01-08 22:33:00,49.0,43.0,30.31,South,189,2.0,10.0,79,0.00,,,0.00,,2013-01-09 03:33:00,
2013-01-08 22:43:00,49.0,43.0,30.31,South,189,2.0,10.0,79,0.00,,,0.00,,2013-01-09 03:43:00,
2013-01-08 22:52:00,49.0,43.0,30.31,SSW,193,1.0,7.0,80,0.00,,,0.00,,2013-01-09 03:52:00,
2013-01-08 23:02:00,49.0,43.0,30.31,SW,227,4.0,7.0,80,0.00,,,0.00,,2013-01-09 04:02:00,
2013-01-08 23:12:00,49.0,43.0,30.31,SW,227,4.0,7.0,80,0.00,,,0.00,,2013-01-09 04:12:00,
2013-01-08 23:22:00,49.0,43.0,30.31,SW,216,0.0,3.0,79,0.00,,,0.00,,2013-01-09 04:22:00,
2013-01-08 23:33:00,49.0,43.0,30.31,SW,216,0.0,3.0,79,0.00,,,0.00,,2013-01-09 04:33:00,
2013-01-08 23:43:00,49.0,42.0,30.31,SSW,206,1.0,5.0,78,0.00,,,0.00,,2013-01-09 04:43:00,
2013-01-08 23:52:00,49.0,42.0,30.31,SSW,206,1.0,5.0,78,0.00,,,0.00,,2013-01-09 04:52:00,